Home > Weather > Des Moines > Past weeks

Flag for U.S.A. Weather for the Past 2 Weeks in Des Moines, Iowa, U.S.A.

Now
32 °F

Mostly cloudy.


Feels Like: 24 °F
Forecast: 14 / 31 °F
Wind: 9 mph from Southeast

Location: Des Moines International Airport

Current Time: Feb 5, 2016 at 4:59:33 PM

Latest Report: Feb 5, 2016 at 3:54 PM


Visibility: 10 mi

Pressure: 30.33 "Hg

Humidity: 54%

Dew point: 17 °F

Location of Des MoinesLocation

Historic Weather in Des Moines — Graph

°F

Des Moines Temperature Yesterday

Maximum temperature yesterday: 34 °F (at 12:54 PM)
Minimum temperature yesterday: 13 °F (at 3:54 AM)
Average temperature yesterday: 23 °F

High & Low Weather Summary for the Past Weeks

 TemperatureHumidityPressure
High49 °F (Jan 30, 1:54 PM)93% (Feb 1, 6:54 AM)30.46 "Hg (Feb 1, 6:54 AM)
Low13 °F (Feb 4, 3:54 AM)54% (Feb 1, 12:54 PM)29.45 "Hg (Feb 2, 9:54 PM)
Average30 °F76%29.99 "Hg
* Reported Jan 21 2:54 PM — Feb 5 2:54 PM, Des Moines, Weather by CustomWeather, © 2016

Note: Actual official high and low records may vary slightly from our data, if they occured in-between our weather recording intervals... More about our weather records

Advertising

Des Moines Weather History for the Previous 24 Hours

 ConditionsComfort  
Time TempWeatherWind HumidityBarometerVisibility
2:54 PM
Fri, Feb 5
31 °FMostly cloudy.10 mph59%30.35 "Hg10 mi
1:54 PM29 °FOvercast.10 mph58%30.36 "Hg10 mi
12:54 PM27 °FMostly cloudy.9 mph63%30.40 "Hg10 mi
11:54 AM26 °FMostly cloudy.6 mph63%30.43 "Hg10 mi
10:54 AM23 °FMostly cloudy.7 mph72%30.46 "Hg10 mi
9:54 AM21 °FCloudy.6 mph81%30.45 "Hg8 mi
8:54 AM19 °FCloudy.3 mph81%30.45 "Hg6 mi
7:54 AM16 °FIce fog.No wind87%30.44 "Hg5 mi
6:54 AM15 °FPartly cloudy.3 mph80%30.43 "Hg7 mi
5:54 AM14 °FPassing clouds.No wind84%30.42 "Hg7 mi
4:54 AM16 °FMostly cloudy.No wind84%30.40 "Hg7 mi
3:54 AM16 °FPassing clouds.No wind80%30.40 "Hg9 mi
2:54 AM16 °FPassing clouds.No wind80%30.41 "Hg10 mi
1:54 AM17 °FClear.3 mph76%30.40 "Hg10 mi
12:54 AM18 °FClear.3 mph74%30.40 "Hg10 mi
11:54 PM
Thu, Feb 4
19 °FClear.8 mph74%30.39 "Hg10 mi
10:54 PM21 °FClear.7 mph71%30.36 "Hg10 mi
9:54 PM22 °FClear.8 mph75%30.36 "Hg10 mi
8:54 PM24 °FClear.9 mph71%30.33 "Hg10 mi
7:54 PM27 °FPassing clouds.16 mph72%30.32 "Hg10 mi
6:54 PM28 °FOvercast.12 mph72%30.31 "Hg10 mi
5:54 PM28 °FMostly cloudy.12 mph69%30.29 "Hg10 mi
4:54 PM29 °FPartly sunny.12 mph66%30.26 "Hg10 mi
Weather by CustomWeather, © 2016

See weather overviewHow to use our weather pages